Regional Weather Roundup
Issued by NWS

Home | Current Version | Previous Version | Text Only | Print | Product List | Glossary On
Versions: 1 2 3 4 5 6 7 8 9 10 11 12 13 14 15 16 17 18 19 20 21 22 23 24 25 26 27 28 29 30 31 32 33 34 35 36 37 38 39 40 41 42 43 44 45 46 47 48 49 50
000
ASUS44 KMEG 280410
RWRTN
TENNESSEE HOURLY STATE WEATHER ROUNDUP
NATIONAL WEATHER SERVICE MEMPHIS TN
1000 PM CST THU NOV 27 2014

TNZ002-004-019-021-049-052-054-088>092-280500-
WEST TENNESSEE

CITY           SKY/WX    TMP DP  RH WIND       PRES   REMARKS
MEMPHIS INTL   CLEAR     34  27  75 S3        30.47R
NWS MEMPHIS      N/A     31 N/A N/A MISG        N/A
JACKSON        CLEAR     28  23  81 S3        30.48S
DYERSBURG      CLEAR     30  16  55 SE3       30.50R
UNION CITY     CLEAR     23  21  93 CALM      30.46F
PARIS          CLEAR     21  19  93 CALM      30.46F
LEXINGTON      CLEAR     25  21  86 CALM      30.47S
SAVANNAH       CLEAR     27  23  86 CALM      30.49S
$$

TNZ008-025-027-028-033-062-065-066-280500-
NORTH MIDDLE TENNESSEE

CITY           SKY/WX    TMP DP  RH WIND       PRES   REMARKS
NASHVILLE      MOCLDY    30  20  66 CALM      30.49S
CLARKSVILLE    CLOUDY    30  24  78 CALM      30.48F
COOKEVILLE     CLOUDY    28  21  74 CALM      30.43S
CROSSVILLE     CLOUDY    27  19  72 NW7       30.38S WCI  19
$$

TNZ061-075-076-078-094-096-097-280500-
SOUTH MIDDLE TENNESSEE

CITY           SKY/WX    TMP DP  RH WIND       PRES   REMARKS
FAYETTEVILLE   MOCLDY    28  21  74 MISG      30.46R
TULLAHOMA      MOCLDY    27  18  69 N7        30.45S WCI  19
WINCHESTER     CLOUDY    28  21  74 N10       30.46S WCI  19
MCMINNVILLE    CLOUDY    28  19  69 CALM      30.46R
COLUMBIA       CLEAR     27  25  93 CALM      30.46F
SHELBYVILLE    MOCLDY    28  23  80 N5        30.48S WCI  23
$$

TNZ017-018-042-046-047-280500-
NORTHEAST TENNESSEE

CITY           SKY/WX    TMP DP  RH WIND       PRES   REMARKS
TRI CITIES     FLURRIES  30  21  69 W7        30.34F WCI  23
ELIZABETHTON   MIX PCPN  27  19  74 VRB3      30.32F
$$

TNZ012-013-036-069-073-074-280500-
CENTRAL EAST TENNESSEE

CITY           SKY/WX    TMP DP  RH WIND       PRES   REMARKS
KNOXVILLE      CLOUDY    32  21  64 NW5       30.40F WCI  27
OAK RIDGE      CLOUDY    34  21  59 CALM      30.42F
GATLINBURG     MOCLDY    28  19  69 CALM      30.39F
MORRISTOWN     MOCLDY    30  21  69 W5        30.38S WCI  25
$$

TNZ083-085-099-280500-
SOUTHEAST TENNESSEE

CITY           SKY/WX    TMP DP  RH WIND       PRES   REMARKS
CHATTANOOGA    MOCLDY    34  22  61 N8        30.44S WCI  27
$$

SKY/WX REPORTED AS FAIR MEANS FEW OR NO CLOUDS BELOW
12 THOUSAND FEET.



USA.gov is the U.S. government's official web portal to all federal, state and local government web resources and services.